Skip Page Navigation
NASA JPL Caltech
NASA Logo - Jet Propulsion Laboratory + View the NASA Portal
+ Near-Earth Object (NEO) Program
Search JPL
JPL Home Earth Solar System Stars & Galaxies Technology
JPL Solar System Dynamics
BODIES ORBITS EPHEMERIDES TOOLS PHYSICAL DATA DISCOVERY FAQ SITE MAP
JPL Small-Body Database Browser
Search: [ help ]  
55824 (1995 QN1)
Classification: Main-belt Asteroid          SPK-ID: 2055824
Ephemeris | Orbit Diagram | Orbital Elements | Physical Parameters | Discovery Circumstances | Close-Approach Data ]

[ show orbit diagram ]
Orbital Elements at Epoch 2457600.5 (2016-Jul-31.0) TDB
Reference: JPL 13 (heliocentric ecliptic J2000)
 Element Value Uncertainty (1-sigma)   Units 
e .03993800625590135 6.6076e-08  
a 3.049111126713159 4.2976e-08 au
q 2.92733570745955 1.8442e-07 au
i 1.836825869158568 8.5507e-06 deg
node 186.2906402471507 0.00019276 deg
peri 263.1966372539579 0.00022632 deg
M 228.0430705419091 0.00011495 deg
tp 2458313.333344288539
(2018-Jul-13.83334429)
0.00062259 JED
period 1944.725487306643
5.32
4.1115e-05
1.126e-07
d
yr
n .1851161011411352 3.9137e-09 deg/d
Q 3.170886545966767 4.4693e-08 au
  Orbit Determination Parameters
   # obs. used (total)      391  
   data-arc span      9030 days (24.72 yr)  
   first obs. used      1990-09-25  
   last obs. used      2015-06-16  
   planetary ephem.      DE431  
   SB-pert. ephem.      SB431-BIG16  
   condition code      0  
   fit RMS      .66199  
   data source      ORB  
   producer      Otto Matic  
   solution date      2015-Jul-06 13:28:31  

Additional Information
 Earth MOID = 1.9429 au 
 Jupiter MOID = 1.9147 au 
 T_jup = 3.236 
[ show covariance matrix ]

Ephemeris | Orbit Diagram | Orbital Elements | Physical Parameters | Discovery Circumstances | Close-Approach Data ]

Physical Parameter Table
Parameter Symbol Value Units Sigma Reference Notes
absolute magnitude H 15.2 mag n/a MPO253714  

55824 (1995 QN1)          Discovered 1995-Aug-19 by Beijing Schmidt CCD Asteroid Program at Xinglong
Reference: 20030318/Numbers.arcLast Updated: 2004-04-19

[ show close-approach data ]
Alternate Designations
 1995 QN1 = 1993 HV9 = 2001 TS71 
Ephemeris | Orbit Diagram | Orbital Elements | Physical Parameters | Discovery Circumstances | Close-Approach Data ]
ABOUT SSD CREDITS/AWARDS PRIVACY/COPYRIGHT GLOSSARY LINKS
FirstGov 2016-May-06 13:01 UT
(server date/time)  
NASA Home Page
Site Manager:   Ryan S. Park
Webmaster  Alan B. Chamberlin